TimeSAST,TemperatureF,Dew PointF,Humidity,Sea Level PressureIn,VisibilityMPH,Wind Direction,Wind SpeedMPH,Gust SpeedMPH,PrecipitationIn,Events,Conditions,WindDirDegrees,DateUTC
12:00 AM,60.8,55.4,82,30.12,6.2,SSW,3.5,-,N/A,Rain,Light Rain,200,2014-01-10 22:00:00
1:00 AM,60.8,57.2,88,30.09,6.2,WNW,3.5,-,N/A,,Overcast,300,2014-01-10 23:00:00
2:00 AM,60,56,84,30.09,12,NW,4.6,,,,,320,2014-01-11 00:00:00
2:00 AM,60.8,57.2,88,30.09,6.2,NNW,4.6,-,N/A,Rain,Light Rain,330,2014-01-11 00:00:00
3:00 AM,59.0,55.4,88,30.06,6.2,NNW,4.6,-,N/A,,Partly Cloudy,340,2014-01-11 01:00:00
4:00 AM,57.2,53.6,88,30.06,-9999.0,Variable,2.3,-,N/A,,Clear,0,2014-01-11 02:00:00
5:00 AM,56,53,86,30.08,12,NE,3.5,,,,Scattered Clouds,40,2014-01-11 03:00:00
5:00 AM,55.4,53.6,94,30.06,6.2,NE,3.5,-,N/A,,Partly Cloudy,40,2014-01-11 03:00:00
6:00 AM,55.4,51.8,88,30.06,6.2,NW,3.5,-,N/A,,Partly Cloudy,310,2014-01-11 04:00:00
7:00 AM,59.0,53.6,82,30.06,6.2,NW,2.3,-,N/A,,Partly Cloudy,310,2014-01-11 05:00:00
8:00 AM,63,55,67,30.10,12,,1.2,,,,Partly Cloudy,,2014-01-11 06:00:00
8:00 AM,62.6,55.4,77,30.06,6.2,Variable,1.2,-,N/A,,Scattered Clouds,0,2014-01-11 06:00:00
9:00 AM,64.4,55.4,73,30.06,6.2,SSE,4.6,-,N/A,,Scattered Clouds,150,2014-01-11 07:00:00
10:00 AM,66.2,55.4,68,30.06,6.2,SE,8.1,-,N/A,,Mostly Cloudy,130,2014-01-11 08:00:00
11:00 AM,64,54,63,30.08,12,South,8.1,,,,Mostly Cloudy,170,2014-01-11 09:00:00
11:00 AM,64.4,55.4,73,30.06,6.2,South,8.1,-,N/A,,Mostly Cloudy,170,2014-01-11 09:00:00
12:00 PM,64.4,53.6,68,30.06,6.2,SE,8.1,-,N/A,,Mostly Cloudy,140,2014-01-11 10:00:00
1:00 PM,64.4,55.4,73,30.06,6.2,SE,6.9,-,N/A,,Mostly Cloudy,140,2014-01-11 11:00:00
2:00 PM,65,55,63,30.06,12,SE,8.1,,,,Mostly Cloudy,140,2014-01-11 12:00:00
2:00 PM,64.4,55.4,73,30.04,6.2,SSE,6.9,-,N/A,,Mostly Cloudy,150,2014-01-11 12:00:00
3:00 PM,66.2,55.4,68,30.04,6.2,ESE,8.1,-,N/A,,Mostly Cloudy,120,2014-01-11 13:00:00
4:00 PM,64.4,55.4,73,30.04,6.2,SE,8.1,-,N/A,,Mostly Cloudy,140,2014-01-11 14:00:00
5:00 PM,65,56,65,30.02,12,SE,6.9,,,,Mostly Cloudy,130,2014-01-11 15:00:00
5:00 PM,64.4,55.4,73,30.01,6.2,SE,6.9,-,N/A,,Mostly Cloudy,130,2014-01-11 15:00:00
6:00 PM,64.4,55.4,73,30.01,6.2,East,6.9,-,N/A,,Mostly Cloudy,80,2014-01-11 16:00:00
7:00 PM,64.4,55.4,73,30.04,6.2,East,4.6,-,N/A,,Mostly Cloudy,90,2014-01-11 17:00:00
8:00 PM,64,55,66,30.06,12,SE,3.5,,,,Mostly Cloudy,130,2014-01-11 18:00:00
8:00 PM,64.4,55.4,73,30.04,6.2,ESE,3.5,-,N/A,,Mostly Cloudy,110,2014-01-11 18:00:00
9:00 PM,62.6,57.2,82,30.06,6.2,East,3.5,-,N/A,,Overcast,80,2014-01-11 19:00:00
10:00 PM,62.6,55.4,77,30.06,6.2,Variable,2.3,-,N/A,,Mostly Cloudy,0,2014-01-11 20:00:00
11:00 PM,62.6,57.2,82,30.06,-9999.0,East,2.3,-,N/A,,Clear,80,2014-01-11 21:00:00